RYR9459 GMMX-LPFR

Flight info

Callsign RYR9459
Flight time 1h 1m
Altitude 34000
Route MABAP UR722 AMSEL DCT GIMAL
Aircraft B738/M-SDE2E3FGHIRWXY/LB1

Departure

Time 2026-05-01 12:28
Airport Marrakesh Menara Airport (GMMX)

Arrival

Time 2026-05-01 13:29
Airport Faro - Gago Coutinho International Airport (LPFR)
Time Latitude Longitude Altitude Speed Heading
2026-05-01 12:00 31.60349 -8.02539 1536 ft 0 kts 186°
2026-05-01 12:19 31.60353 -8.02538 1536 ft 2 kts 185°
2026-05-01 12:19 31.60369 -8.02537 1535 ft 2 kts 184°
2026-05-01 12:20 31.60386 -8.02536 1536 ft 2 kts 181°
2026-05-01 12:20 31.60402 -8.02536 1534 ft 2 kts 172°
2026-05-01 12:20 31.60418 -8.02542 1533 ft 2 kts 124°
2026-05-01 12:20 31.60421 -8.02553 1527 ft 0 kts 96°
2026-05-01 12:21 31.60421 -8.02554 1527 ft 0 kts 96°
2026-05-01 12:24 31.60421 -8.02550 1536 ft 2 kts 96°
2026-05-01 12:25 31.60419 -8.02507 1537 ft 9 kts 90°
2026-05-01 12:25 31.60402 -8.02334 1538 ft 10 kts 97°
2026-05-01 12:25 31.60395 -8.02253 1539 ft 10 kts 95°
2026-05-01 12:26 31.60388 -8.02175 1540 ft 10 kts 95°
2026-05-01 12:26 31.60407 -8.02039 1538 ft 9 kts 12°
2026-05-01 12:26 31.60470 -8.02031 1541 ft 9 kts
2026-05-01 12:27 31.60542 -8.02050 1534 ft 13 kts 309°
2026-05-01 12:27 31.60621 -8.02875 1533 ft 115 kts 275°
2026-05-01 12:28 31.60837 -8.05372 2220 ft 168 kts 276°
2026-05-01 12:28 31.60949 -8.06771 2911 ft 173 kts 276°
2026-05-01 12:28 31.61213 -8.09859 3881 ft 217 kts 277°
2026-05-01 12:29 31.61392 -8.11727 4156 ft 241 kts 277°
2026-05-01 12:29 31.61575 -8.13714 4782 ft 248 kts 276°
2026-05-01 12:29 31.62581 -8.17553 6549 ft 253 kts 310°
2026-05-01 12:30 31.65789 -8.19299 8096 ft 270 kts 358°
2026-05-01 12:30 31.67641 -8.18993 8887 ft 275 kts 12°
2026-05-01 12:30 31.69525 -8.18469 9663 ft 281 kts 13°
2026-05-01 12:31 31.71443 -8.17906 10412 ft 286 kts 13°
2026-05-01 12:31 31.73376 -8.17328 11238 ft 286 kts 13°
2026-05-01 12:31 31.75311 -8.16750 12051 ft 288 kts 12°
2026-05-01 12:31 31.77268 -8.16166 12836 ft 291 kts 12°
2026-05-01 12:32 31.78569 -8.15778 13358 ft 292 kts 11°
2026-05-01 12:32 31.82627 -8.15386 14481 ft 308 kts 349°
2026-05-01 12:32 31.84836 -8.15722 14649 ft 332 kts 349°
2026-05-01 12:33 31.87200 -8.16099 14845 ft 353 kts 349°
2026-05-01 12:33 31.89680 -8.16482 15317 ft 364 kts 349°
2026-05-01 12:33 31.92206 -8.16855 16000 ft 367 kts 349°
2026-05-01 12:33 31.94745 -8.17218 16735 ft 368 kts 349°
2026-05-01 12:34 31.97303 -8.17580 17443 ft 371 kts 349°
2026-05-01 12:34 31.99879 -8.17942 18119 ft 374 kts 349°
2026-05-01 12:34 32.02478 -8.18307 18724 ft 378 kts 349°
2026-05-01 12:34 32.05069 -8.18670 19312 ft 380 kts 349°
2026-05-01 12:35 32.07711 -8.19041 19916 ft 383 kts 348°
2026-05-01 12:35 32.10374 -8.19416 20537 ft 385 kts 348°
2026-05-01 12:35 32.13061 -8.19679 21132 ft 393 kts 356°
2026-05-01 12:35 32.15810 -8.19372 21681 ft 399 kts
2026-05-01 12:36 32.18578 -8.18896 22227 ft 404 kts
2026-05-01 12:36 32.21367 -8.18382 22762 ft 407 kts
2026-05-01 12:36 32.24177 -8.17869 23298 ft 410 kts
2026-05-01 12:36 32.27018 -8.17368 23802 ft 413 kts
2026-05-01 12:37 32.29843 -8.16886 24229 ft 416 kts
2026-05-01 12:37 32.32720 -8.16408 24676 ft 419 kts
2026-05-01 12:37 32.35618 -8.15933 25127 ft 421 kts
2026-05-01 12:37 32.38534 -8.15457 25551 ft 424 kts
2026-05-01 12:38 32.41467 -8.14981 25970 ft 427 kts
2026-05-01 12:38 32.44426 -8.14499 26390 ft 430 kts
2026-05-01 12:38 32.47401 -8.14014 26810 ft 433 kts
2026-05-01 12:38 32.50392 -8.13526 27207 ft 435 kts
2026-05-01 12:39 32.53402 -8.13034 27589 ft 438 kts
2026-05-01 12:39 32.56427 -8.12539 27950 ft 441 kts
2026-05-01 12:39 32.59476 -8.12040 28327 ft 443 kts
2026-05-01 12:39 32.62541 -8.11538 28705 ft 446 kts
2026-05-01 12:40 32.65621 -8.11032 29085 ft 449 kts
2026-05-01 12:40 32.68727 -8.10523 29436 ft 451 kts
2026-05-01 12:40 32.71807 -8.10018 29774 ft 454 kts
2026-05-01 12:40 32.74944 -8.09506 30114 ft 456 kts
2026-05-01 12:41 32.78100 -8.08993 30407 ft 459 kts
2026-05-01 12:41 32.81272 -8.08478 30708 ft 460 kts
2026-05-01 12:41 32.84454 -8.07960 30986 ft 462 kts
2026-05-01 12:41 32.87650 -8.07440 31252 ft 464 kts
2026-05-01 12:42 32.90854 -8.06890 31532 ft 468 kts
2026-05-01 12:42 32.94034 -8.05892 31788 ft 477 kts 14°
2026-05-01 12:42 32.97084 -8.04293 32151 ft 482 kts 23°
2026-05-01 12:42 33.00016 -8.02369 32579 ft 480 kts 24°
2026-05-01 12:43 33.02920 -8.00399 32940 ft 480 kts 25°
2026-05-01 12:43 33.05821 -7.98424 33247 ft 481 kts 25°
2026-05-01 12:43 33.08733 -7.96457 33565 ft 480 kts 24°
2026-05-01 12:43 33.11650 -7.94508 33921 ft 479 kts 24°
2026-05-01 12:44 33.14530 -7.92598 34138 ft 481 kts 24°
2026-05-01 12:44 33.17474 -7.90657 34122 ft 485 kts 24°
2026-05-01 12:45 33.29178 -7.82923 34135 ft 476 kts 24°
2026-05-01 12:45 33.34992 -7.79074 34137 ft 477 kts 24°
2026-05-01 12:46 33.40808 -7.75214 34134 ft 478 kts 24°
2026-05-01 12:46 33.46642 -7.71336 34145 ft 479 kts 24°
2026-05-01 12:47 33.52723 -7.68508 34134 ft 465 kts
2026-05-01 12:47 33.59062 -7.68169 34144 ft 451 kts 349°
2026-05-01 12:48 33.65318 -7.68819 34133 ft 451 kts 348°
2026-05-01 12:48 33.71578 -7.69457 34158 ft 452 kts 349°
2026-05-01 12:49 33.77855 -7.70049 34156 ft 453 kts 349°
2026-05-01 12:49 33.84139 -7.70624 34150 ft 453 kts 349°
2026-05-01 12:50 33.90394 -7.71194 34152 ft 453 kts 349°
2026-05-01 12:50 33.96660 -7.71767 34134 ft 444 kts 349°
2026-05-01 12:51 33.99695 -7.72039 34147 ft 432 kts 349°
2026-05-01 12:51 34.02682 -7.72312 34147 ft 428 kts 349°
2026-05-01 12:52 34.11547 -7.73139 34167 ft 428 kts 349°
2026-05-01 12:52 34.20473 -7.73951 34168 ft 429 kts 349°
2026-05-01 12:53 34.29454 -7.74572 34173 ft 431 kts 350°
2026-05-01 12:54 34.35452 -7.74976 34164 ft 432 kts 350°
2026-05-01 12:54 34.44416 -7.75600 34167 ft 432 kts 350°
2026-05-01 12:55 34.53423 -7.76234 34178 ft 432 kts 350°
2026-05-01 12:56 34.59426 -7.76657 34171 ft 432 kts 350°
2026-05-01 12:56 34.65416 -7.77079 34171 ft 431 kts 350°
2026-05-01 12:57 34.71406 -7.77502 34171 ft 431 kts 350°
2026-05-01 12:57 34.80372 -7.78190 34180 ft 430 kts 349°
2026-05-01 12:58 34.86302 -7.78693 34172 ft 430 kts 349°
2026-05-01 12:59 34.95244 -7.79443 34175 ft 428 kts 349°
2026-05-01 12:59 35.03973 -7.80160 33448 ft 410 kts 349°
2026-05-01 13:00 35.09623 -7.80631 32716 ft 403 kts 348°
2026-05-01 13:00 35.12412 -7.80865 32352 ft 400 kts 348°
2026-05-01 13:01 35.17920 -7.81326 31638 ft 394 kts 348°
2026-05-01 13:01 35.20648 -7.81555 31283 ft 391 kts 348°
2026-05-01 13:01 35.26047 -7.82008 30598 ft 387 kts 348°
2026-05-01 13:02 35.28723 -7.82233 30240 ft 385 kts 348°
2026-05-01 13:07 35.80750 -7.86849 22817 ft 339 kts 349°
2026-05-01 13:07 35.83101 -7.87062 22474 ft 337 kts 349°
2026-05-01 13:07 35.85430 -7.87273 22135 ft 335 kts 349°
2026-05-01 13:08 35.87747 -7.87484 21800 ft 333 kts 349°
2026-05-01 13:08 35.90050 -7.87693 21472 ft 331 kts 349°
2026-05-01 13:08 35.92336 -7.87901 21147 ft 329 kts 349°
2026-05-01 13:08 35.94615 -7.88109 20822 ft 327 kts 349°
2026-05-01 13:09 35.96883 -7.88316 20501 ft 326 kts 349°
2026-05-01 13:09 35.99127 -7.88598 20188 ft 323 kts 347°
2026-05-01 13:09 36.01352 -7.88940 19866 ft 321 kts 347°
2026-05-01 13:09 36.03539 -7.89291 19551 ft 320 kts 347°
2026-05-01 13:10 36.05745 -7.89645 19226 ft 320 kts 347°
2026-05-01 13:10 36.07952 -7.89996 18901 ft 320 kts 347°
2026-05-01 13:10 36.10164 -7.90344 18581 ft 319 kts 347°
2026-05-01 13:10 36.12368 -7.90688 18218 ft 319 kts 347°
2026-05-01 13:11 36.14569 -7.91029 17870 ft 318 kts 347°
2026-05-01 13:11 36.16762 -7.91368 17539 ft 317 kts 348°
2026-05-01 13:11 36.18946 -7.91704 17212 ft 315 kts 348°
2026-05-01 13:11 36.21120 -7.92039 16887 ft 314 kts 348°
2026-05-01 13:12 36.23283 -7.92372 16561 ft 313 kts 348°
2026-05-01 13:12 36.25441 -7.92704 16254 ft 312 kts 348°
2026-05-01 13:12 36.27590 -7.93035 15934 ft 311 kts 348°
2026-05-01 13:12 36.29736 -7.93366 15615 ft 310 kts 348°
2026-05-01 13:13 36.31849 -7.93692 15307 ft 310 kts 349°
2026-05-01 13:13 36.33989 -7.94022 14987 ft 309 kts 349°
2026-05-01 13:13 36.36125 -7.94352 14653 ft 310 kts 349°
2026-05-01 13:13 36.38263 -7.94682 14334 ft 310 kts 349°
2026-05-01 13:14 36.40410 -7.95014 14012 ft 310 kts 349°
2026-05-01 13:14 36.42553 -7.95347 13651 ft 310 kts 349°
2026-05-01 13:14 36.44690 -7.95678 13324 ft 309 kts 349°
2026-05-01 13:14 36.46821 -7.96007 13000 ft 308 kts 350°
2026-05-01 13:15 36.48945 -7.96336 12676 ft 307 kts 350°
2026-05-01 13:15 36.51064 -7.96664 12357 ft 306 kts 350°
2026-05-01 13:15 36.53151 -7.96987 12042 ft 306 kts 350°
2026-05-01 13:15 36.55261 -7.97314 11726 ft 305 kts 350°
2026-05-01 13:16 36.57362 -7.97640 11417 ft 304 kts 350°
2026-05-01 13:16 36.59459 -7.97965 11110 ft 303 kts 350°
2026-05-01 13:16 36.61550 -7.98290 10799 ft 303 kts 350°
2026-05-01 13:17 36.67751 -7.99252 10059 ft 294 kts 351°
2026-05-01 13:17 36.69787 -7.99569 9751 ft 293 kts 351°
2026-05-01 13:18 36.73815 -8.00126 9162 ft 291 kts
2026-05-01 13:18 36.75127 -7.99818 8959 ft 291 kts 22°
2026-05-01 13:18 36.76778 -7.98434 8706 ft 286 kts 49°
2026-05-01 13:18 36.77846 -7.96381 8429 ft 281 kts 68°
2026-05-01 13:19 36.78595 -7.94143 8155 ft 279 kts 70°
2026-05-01 13:19 36.79302 -7.91892 7871 ft 278 kts 71°
2026-05-01 13:19 36.80709 -7.87416 7308 ft 276 kts 70°
2026-05-01 13:20 36.81416 -7.85195 7031 ft 275 kts 70°
2026-05-01 13:20 36.82118 -7.83006 6750 ft 275 kts 70°
2026-05-01 13:20 36.82829 -7.80795 6461 ft 274 kts 70°
2026-05-01 13:21 36.84264 -7.76346 5712 ft 278 kts 70°
2026-05-01 13:21 36.84985 -7.74111 5411 ft 277 kts 69°
2026-05-01 13:21 36.85700 -7.71894 5176 ft 273 kts 69°
2026-05-01 13:21 36.86634 -7.69881 5034 ft 267 kts 45°
2026-05-01 13:22 36.88167 -7.68678 4956 ft 257 kts 19°
2026-05-01 13:22 36.89890 -7.68278 4840 ft 248 kts
2026-05-01 13:22 36.91589 -7.68111 4725 ft 241 kts
2026-05-01 13:22 36.93227 -7.67948 4614 ft 232 kts
2026-05-01 13:23 36.94812 -7.67784 4387 ft 224 kts
2026-05-01 13:23 36.96329 -7.67844 4126 ft 216 kts 340°
2026-05-01 13:23 36.97416 -7.68949 3944 ft 202 kts 296°
2026-05-01 13:23 36.97745 -7.70596 3768 ft 191 kts 278°
2026-05-01 13:24 36.97990 -7.72167 3740 ft 180 kts 281°
2026-05-01 13:24 36.98229 -7.73725 3515 ft 181 kts 280°
2026-05-01 13:24 36.98444 -7.75220 3272 ft 169 kts 280°
2026-05-01 13:25 36.98833 -7.77995 2851 ft 160 kts 279°
2026-05-01 13:25 36.99022 -7.79354 2639 ft 157 kts 279°
2026-05-01 13:25 36.99207 -7.80678 2432 ft 153 kts 278°
2026-05-01 13:25 36.99391 -7.81997 2226 ft 154 kts 278°
2026-05-01 13:26 36.99623 -7.83327 1999 ft 156 kts 279°
2026-05-01 13:26 36.99780 -7.84644 1802 ft 152 kts 276°
2026-05-01 13:26 36.99935 -7.85857 1623 ft 152 kts 277°
2026-05-01 13:26 37.00119 -7.87190 1422 ft 148 kts 277°
2026-05-01 13:27 37.00297 -7.88450 1233 ft 146 kts 277°
2026-05-01 13:27 37.00475 -7.89721 1009 ft 149 kts 277°
2026-05-01 13:27 37.00835 -7.92252 657 ft 146 kts 278°
2026-05-01 13:28 37.01173 -7.94715 276 ft 143 kts 277°
2026-05-01 13:28 37.01356 -7.95984 96 ft 152 kts 276°
2026-05-01 13:29 37.01681 -7.98248 21 ft 75 kts 280°
2026-05-01 13:29 37.01805 -7.98574 20 ft 11 kts
2026-05-01 13:30 37.01868 -7.98291 20 ft 10 kts 98°
2026-05-01 13:31 37.01844 -7.98123 19 ft 10 kts 99°
2026-05-01 13:31 37.01798 -7.97790 20 ft 14 kts 99°
2026-05-01 13:32 37.01766 -7.97562 19 ft 13 kts 100°
2026-05-01 13:33 37.01720 -7.97240 19 ft 12 kts 100°
2026-05-01 13:33 37.01691 -7.97039 19 ft 12 kts 101°
2026-05-01 13:34 37.01663 -7.96843 19 ft 12 kts 101°
2026-05-01 13:34 37.01633 -7.96617 19 ft 15 kts 98°
2026-05-01 13:35 37.01779 -7.96536 20 ft 12 kts 316°
2026-05-01 13:35 37.01817 -7.96569 19 ft 7 kts
2026-05-01 13:35 37.01866 -7.96559 19 ft 0 kts 10°
2026-05-01 13:36 37.01868 -7.96559 19 ft 2 kts 10°
2026-05-01 13:36 37.01871 -7.96558 19 ft 0 kts